Greenville, WI

9:53 PM CST on February 24, 2017 (GMT -0600)
Outagamie County Regional

Weather History for KATW - April, 2013

Change the Weather History Date:

Friday, April 12, 2013

  Actual Average Record
Temperature  
Mean Temperature 32 °F -  
Max Temperature 33 °F 52 °F 113 °F (2016)
Min Temperature 30 °F 33 °F 17 °F (1990)
Degree Days  
Heating Degree Days 34    
Moisture  
Dew Point 32 °F    
Average Humidity 97    
Maximum Humidity 100    
Minimum Humidity 87    
Precipitation  
Precipitation 0.00 in - - ()
Sea Level Pressure  
Sea Level Pressure 29.63 in    
Wind  
Wind Speed 8 mph (NE)    
Max Wind Speed 12 mph    
Max Gust Speed 16 mph    
Visibility 5 miles    
Events Rain , Snow    
Averages and records for this station are not official NWS values.
T = Trace of Precipitation, MM = Missing Value Source: NWS Daily Summary

Daily Weather History Graph

Daily Weather History Graph

Search for Another Location

Airport or City:

Trip Planner

Search our weather history database for the weather conditions in past years. The results will help you decide how hot, cold, wet, or windy it might be!

Date:

Astronomy

Apr. 12, 2013 Rise Set
Actual Time 6:15 AM CDT 7:35 PM CDT
Civil Twilight 5:45 AM CDT 8:05 PM CDT
Nautical Twilight 5:09 AM CDT 8:41 PM CDT
Astronomical Twilight 4:30 AM CDT 9:19 PM CDT
Moon 7:20 AM CDT (4/12) 10:11 PM CDT (4/12)
Length of Visible Light 14h 19m
Length of Day
13h 19m
Waxing Crescent, 5% of the Moon is Illuminated
Apr 12
Waxing Crescent
Apr 18
First Quarter
Apr 25
Full
May 2
Last Quarter
May 9
New

Hourly Weather History & Observations

Time (CDT) Temp. Windchill Dew Point Humidity Pressure Visibility Wind Dir Wind Speed Gust Speed Precip Events Conditions
12:15 AM 32.0 °F 23.6 °F 32.0 °F 100% 29.64 in 3.0 mi NE 10.4 mph - N/A   Drizzle
12:35 AM 32.0 °F 23.6 °F 32.0 °F 100% 29.63 in 3.0 mi ENE 10.4 mph 16.1 mph N/A   Light Drizzle
1:15 AM 32.0 °F 24.2 °F 32.0 °F 100% 29.62 in 3.0 mi ENE 9.2 mph - N/A   Light Drizzle
1:35 AM 32.0 °F 25.6 °F 32.0 °F 100% 29.61 in 3.0 mi ENE 6.9 mph - N/A   Light Drizzle
1:55 AM 32.0 °F 24.2 °F 32.0 °F 100% 29.61 in 2.5 mi ENE 9.2 mph - N/A Rain Light Rain
2:15 AM 32.0 °F 25.6 °F 32.0 °F 100% 29.60 in 2.5 mi NE 6.9 mph - N/A   Light Drizzle
2:35 AM 32.0 °F 25.6 °F 32.0 °F 100% 29.60 in 2.5 mi ENE 6.9 mph - N/A   Overcast
2:55 AM 32.0 °F 24.8 °F 32.0 °F 100% 29.59 in 3.0 mi ENE 8.1 mph - N/A   Overcast
3:15 AM 32.0 °F 24.8 °F 32.0 °F 100% 29.58 in 3.0 mi ENE 8.1 mph - N/A   Overcast
3:35 AM 32.0 °F 24.8 °F 32.0 °F 100% 29.58 in 3.0 mi ENE 8.1 mph - N/A   Overcast
3:55 AM 32.0 °F 24.8 °F 32.0 °F 100% 29.57 in 4.0 mi ENE 8.1 mph - N/A   Overcast
4:15 AM 32.0 °F 25.6 °F 32.0 °F 100% 29.57 in 5.0 mi ENE 6.9 mph - N/A   Overcast
4:35 AM 32.0 °F 25.6 °F 32.0 °F 100% 29.56 in 4.0 mi ENE 6.9 mph - N/A   Overcast
4:55 AM 32.0 °F 24.8 °F 32.0 °F 100% 29.56 in 4.0 mi NE 8.1 mph - N/A   Overcast
5:20 AM 32.0 °F 25.6 °F 32.0 °F 100% 29.55 in 3.0 mi NE 6.9 mph - N/A   Light Drizzle
5:45 AM 32.0 °F 26.4 °F 32.0 °F 100% 29.56 in 3.0 mi NNE 5.8 mph - N/A   Light Drizzle
6:45 AM 32.0 °F 25.6 °F 32.0 °F 100% 29.56 in 1.5 mi NNE 6.9 mph - N/A Snow Light Snow
7:45 AM 30.2 °F 21.9 °F 30.2 °F 100% 29.56 in 1.5 mi NNE 9.2 mph - N/A Snow Light Snow
9:45 AM 30.2 °F 21.9 °F 30.2 °F 100% 29.58 in 1.5 mi NNE 9.2 mph - N/A Snow Light Snow
10:45 AM 32.0 °F 24.2 °F 30.2 °F 93% 29.59 in 2.0 mi NNE 9.2 mph - N/A Snow Light Snow
11:45 AM 32.0 °F 24.2 °F 30.2 °F 93% 29.60 in 5.0 mi NNE 9.2 mph - N/A   Overcast
12:45 PM 32.0 °F 23.0 °F 30.2 °F 93% 29.60 in 3.0 mi NNE 11.5 mph - N/A Snow Light Snow
1:45 PM 32.0 °F 23.6 °F 32.0 °F 100% 29.62 in 2.0 mi North 10.4 mph - N/A Snow Light Snow
2:45 PM 33.8 °F 25.8 °F 32.0 °F 93% 29.64 in 7.0 mi North 10.4 mph - N/A Snow Light Snow
4:45 PM 33.8 °F 27.7 °F 30.2 °F 87% 29.67 in 7.0 mi North 6.9 mph - N/A   Overcast
5:45 PM 33.8 °F 27.7 °F 30.2 °F 87% 29.70 in 5.0 mi North 6.9 mph - N/A Snow Light Snow
6:45 PM 33.8 °F - 30.2 °F 87% 29.72 in 10.0 mi Calm Calm - N/A   Overcast
7:45 PM 32.0 °F - 30.2 °F 93% 29.72 in 10.0 mi Calm Calm - N/A   Overcast
8:45 PM 32.0 °F - 32.0 °F 100% 29.73 in 10.0 mi Calm Calm - N/A   Overcast
9:45 PM 33.8 °F 29.6 °F 32.0 °F 93% 29.74 in 10.0 mi Variable 4.6 mph - N/A   Overcast
10:45 PM 33.8 °F 29.6 °F 32.0 °F 93% 29.74 in 10.0 mi Variable 4.6 mph - N/A   Overcast
10:55 PM 32.0 °F 26.4 °F 32.0 °F 100% 29.73 in 10.0 mi SW 5.8 mph - N/A   Overcast
11:35 PM 32.0 °F 24.8 °F 32.0 °F 100% 29.74 in 10.0 mi WSW 8.1 mph - N/A   Overcast
11:55 PM 32.0 °F 24.8 °F 32.0 °F 100% 29.74 in 10.0 mi WSW 8.1 mph - N/A   Overcast